Port Isabel, TX

1:49 PM CDT on March 28, 2017 (GMT -0500)
Port Isabel-Cameron County

Weather History for KPIL - March, 2013

Change the Weather History Date:

Thursday, March 7, 2013

  Actual Average (KBRO) Record (KBRO)
Temperature  
Mean Temperature 66 °F -  
Max Temperature 75 °F 75 °F 95 °F (1991)
Min Temperature 57 °F 58 °F 32 °F (1989)
Cooling Degree Days 1    
Growing Degree Days 16 (Base 50)    
Moisture  
Dew Point 61 °F    
Average Humidity 77    
Maximum Humidity 88    
Minimum Humidity 60    
Precipitation  
Precipitation 0.00 in - - ()
Sea Level Pressure  
Sea Level Pressure 30.13 in    
Wind  
Wind Speed 10 mph (ESE)    
Max Wind Speed 21 mph    
Max Gust Speed 25 mph    
Visibility 8 miles    
Events      
Averages and records for this station are not official NWS values.
T = Trace of Precipitation, MM = Missing Value Source: NWS Daily Summary

Daily Weather History Graph

Daily Weather History Graph

Search for Another Location

Airport or City:

Trip Planner

Search our weather history database for the weather conditions in past years. The results will help you decide how hot, cold, wet, or windy it might be!

Date:

Astronomy

Mar. 07, 2013 Rise Set
Actual Time 6:46 AM CST 6:34 PM CST
Civil Twilight 6:23 AM CST 6:57 PM CST
Nautical Twilight 5:56 AM CST 7:24 PM CST
Astronomical Twilight 5:30 AM CST 7:50 PM CST
Moon 3:27 AM CST (3/7) 2:42 PM CST (3/7)
Length of Visible Light 12h 33m
Length of Day
11h 47m
Waning Crescent, 20% of the Moon is Illuminated
Mar 7
Waning Crescent
Mar 11
New
Mar 19
First Quarter
Mar 27
Full
Apr 2
Last Quarter

Hourly Weather History & Observations

Time (CST) Temp. Dew Point Humidity Pressure Visibility Wind Dir Wind Speed Gust Speed Precip Events Conditions
12:53 AM 60.1 °F 54.0 °F 80% 30.20 in 10.0 mi East 4.6 mph - N/A   Clear
1:53 AM 59.0 °F 54.0 °F 83% 30.17 in 9.0 mi East 5.8 mph - N/A   Clear
2:53 AM 57.9 °F 54.0 °F 87% 30.15 in 9.0 mi East 4.6 mph - N/A   Clear
3:53 AM 59.0 °F 55.0 °F 87% 30.13 in 9.0 mi East 6.9 mph - N/A   Clear
4:53 AM 62.1 °F 57.9 °F 86% 30.12 in 8.0 mi East 9.2 mph - N/A   Partly Cloudy
5:53 AM 63.0 °F 59.0 °F 87% 30.13 in 8.0 mi East 5.8 mph - N/A   Scattered Clouds
6:10 AM 64.4 °F 59.0 °F 83% 30.13 in 8.0 mi East 5.8 mph - N/A   Mostly Cloudy
6:27 AM 64.4 °F 60.8 °F 88% 30.13 in 8.0 mi East 6.9 mph - N/A   Overcast
6:53 AM 64.9 °F 60.1 °F 84% 30.14 in 7.0 mi East 6.9 mph - N/A   Mostly Cloudy
7:53 AM 66.9 °F 61.0 °F 81% 30.16 in 7.0 mi East 8.1 mph - N/A   Partly Cloudy
8:53 AM 70.0 °F 60.1 °F 71% 30.17 in 8.0 mi ESE 10.4 mph - N/A   Mostly Cloudy
9:53 AM 73.0 °F 60.1 °F 64% 30.17 in 8.0 mi ESE 15.0 mph 23.0 mph N/A   Scattered Clouds
10:53 AM 73.0 °F 61.0 °F 66% 30.18 in 8.0 mi ESE 18.4 mph - 0.00 in   Overcast
11:53 AM 73.9 °F 61.0 °F 64% 30.16 in 8.0 mi ESE 15.0 mph - N/A   Overcast
12:53 PM 75.9 °F 61.0 °F 60% 30.14 in 8.0 mi ESE 20.7 mph 25.3 mph N/A   Scattered Clouds
1:53 PM 75.0 °F 62.1 °F 64% 30.12 in 8.0 mi ESE 18.4 mph - 0.00 in   Mostly Cloudy
2:53 PM 73.9 °F 62.1 °F 66% 30.10 in 8.0 mi ESE 18.4 mph - 0.00 in   Overcast
3:53 PM 73.9 °F 62.1 °F 66% 30.09 in 8.0 mi SE 20.7 mph 25.3 mph N/A   Overcast
4:53 PM 72.0 °F 64.0 °F 76% 30.09 in 8.0 mi ESE 11.5 mph 20.7 mph 0.00 in   Overcast
5:53 PM 72.0 °F 63.0 °F 73% 30.10 in 8.0 mi ESE 15.0 mph 23.0 mph N/A   Overcast
6:53 PM 71.1 °F 63.0 °F 75% 30.11 in 9.0 mi ESE 12.7 mph 21.9 mph N/A   Overcast
7:53 PM 70.0 °F 63.0 °F 78% 30.11 in 8.0 mi ESE 16.1 mph - 0.00 in   Mostly Cloudy
8:53 PM 70.0 °F 64.0 °F 81% 30.12 in 8.0 mi ESE 13.8 mph - N/A   Clear
9:53 PM 70.0 °F 64.0 °F 81% 30.13 in 8.0 mi ESE 13.8 mph - N/A   Mostly Cloudy
10:42 PM 69.8 °F 64.4 °F 83% 30.12 in 8.0 mi SE 16.1 mph - N/A   Overcast
10:53 PM 71.1 °F 64.0 °F 78% 30.12 in 8.0 mi ESE 16.1 mph - N/A   Overcast
11:53 PM 71.1 °F 64.0 °F 78% 30.11 in 8.0 mi SE 13.8 mph - N/A   Overcast